Location: Chenereilles
(45.4866°N, 4.0790°E)
Time: 22:51:49
(UTC+00:00)

NOSS 3-1 (C) - Pass Details

Date: 12 November 2019
Orbit: 765 x 1444 km, 63.4° (Epoch: 02 December)

Event Time Altitude Azimuth Distance (km) Brightness Sun altitude
Rises 18:33:06 0° 223° (SW) 3,286 6.9 -23.9°
Reaches altitude 10° 18:35:23 10° 225° (SW) 2,407 6.1 -24.3°
Maximum altitude 18:40:54 74° 311° (NW) 933 3.4 -25.3°
Enters shadow 18:43:19 39° 27° (NNE) 1,383 4.0 -25.7°
